Time,TemperatureF,DewpointF,PressureIn,WindDirection,WindDirectionDegrees,WindSpeedMPH,WindSpeedGustMPH,Humidity,HourlyPrecipIn,Conditions,Clouds,dailyrainin,SoftwareType,DateUTC
2013-02-20 00:10:00,32.7,19.0,30.23,NNW,346,0.0,1.0,58,0.00,,,0.00,weatherlink.com 1.10,2013-02-20 05:10:00,
2013-02-20 00:22:00,32.3,18.0,30.22,NNE,24,1.0,2.0,56,0.00,,,0.00,weatherlink.com 1.10,2013-02-20 05:22:00,
2013-02-20 00:38:00,31.6,20.0,30.22,NNW,329,0.0,1.0,63,0.00,,,0.00,weatherlink.com 1.10,2013-02-20 05:38:00,
2013-02-20 00:53:00,30.7,20.0,30.22,North,1,0.0,1.0,65,0.00,,,0.00,weatherlink.com 1.10,2013-02-20 05:53:00,
2013-02-20 01:08:00,30.2,20.0,30.22,North,358,0.0,1.0,65,0.00,,,0.00,weatherlink.com 1.10,2013-02-20 06:08:00,
2013-02-20 01:23:00,29.6,21.0,30.23,North,357,0.0,0.0,70,0.00,,,0.00,weatherlink.com 1.10,2013-02-20 06:23:00,
2013-02-20 01:38:00,29.2,20.0,30.23,North,357,0.0,0.0,69,0.00,,,0.00,weatherlink.com 1.10,2013-02-20 06:38:00,
2013-02-20 01:53:00,29.0,21.0,30.23,North,353,0.0,1.0,72,0.00,,,0.00,weatherlink.com 1.10,2013-02-20 06:53:00,
2013-02-20 02:08:00,28.6,21.0,30.23,North,354,0.0,1.0,73,0.00,,,0.00,weatherlink.com 1.10,2013-02-20 07:08:00,
2013-02-20 02:23:00,28.1,20.0,30.22,NNW,337,0.0,1.0,72,0.00,,,0.00,weatherlink.com 1.10,2013-02-20 07:23:00,
2013-02-20 02:38:00,28.0,20.0,30.22,West,274,0.0,1.0,71,0.00,,,0.00,weatherlink.com 1.10,2013-02-20 07:38:00,
2013-02-20 02:53:00,27.7,20.0,30.23,WNW,282,0.0,1.0,73,0.00,,,0.00,weatherlink.com 1.10,2013-02-20 07:53:00,
2013-02-20 03:08:00,27.4,20.0,30.22,NW,319,0.0,1.0,73,0.00,,,0.00,weatherlink.com 1.10,2013-02-20 08:08:00,
2013-02-20 03:23:00,27.4,20.0,30.22,NW,317,0.0,1.0,73,0.00,,,0.00,weatherlink.com 1.10,2013-02-20 08:23:00,
2013-02-20 03:38:00,27.2,20.0,30.21,NW,317,0.0,0.0,74,0.00,,,0.00,weatherlink.com 1.10,2013-02-20 08:38:00,
2013-02-20 03:55:00,26.8,20.0,30.21,NW,317,0.0,0.0,76,0.00,,,0.00,weatherlink.com 1.10,2013-02-20 08:55:00,
2013-02-20 04:08:00,26.5,20.0,30.21,NW,317,0.0,0.0,76,0.00,,,0.00,weatherlink.com 1.10,2013-02-20 09:08:00,
2013-02-20 04:24:00,26.3,20.0,30.21,NW,317,0.0,0.0,77,0.00,,,0.00,weatherlink.com 1.10,2013-02-20 09:24:00,
2013-02-20 04:38:00,26.3,20.0,30.20,NW,317,0.0,0.0,78,0.00,,,0.00,weatherlink.com 1.10,2013-02-20 09:38:00,
2013-02-20 04:53:00,26.1,20.0,30.21,NW,317,0.0,0.0,78,0.00,,,0.00,weatherlink.com 1.10,2013-02-20 09:53:00,
2013-02-20 05:08:00,25.9,19.0,30.22,NW,317,0.0,0.0,76,0.00,,,0.00,weatherlink.com 1.10,2013-02-20 10:08:00,
2013-02-20 05:23:00,25.4,20.0,30.23,NNW,332,0.0,0.0,81,0.00,,,0.00,weatherlink.com 1.10,2013-02-20 10:23:00,
2013-02-20 05:38:00,26.4,20.0,30.23,NNW,340,0.0,1.0,76,0.00,,,0.00,weatherlink.com 1.10,2013-02-20 10:38:00,
2013-02-20 05:53:00,27.6,19.0,30.23,NW,316,0.0,0.0,71,0.00,,,0.00,weatherlink.com 1.10,2013-02-20 10:53:00,
2013-02-20 06:08:00,27.0,20.0,30.23,NW,318,0.0,0.0,75,0.00,,,0.00,weatherlink.com 1.10,2013-02-20 11:08:00,
2013-02-20 06:23:00,26.6,19.0,30.23,NW,318,0.0,0.0,74,0.00,,,0.00,weatherlink.com 1.10,2013-02-20 11:23:00,
2013-02-20 06:38:00,26.8,19.0,30.24,North,349,0.0,0.0,73,0.00,,,0.00,weatherlink.com 1.10,2013-02-20 11:38:00,
2013-02-20 06:53:00,26.4,20.0,30.24,North,349,0.0,0.0,76,0.00,,,0.00,weatherlink.com 1.10,2013-02-20 11:53:00,
2013-02-20 07:08:00,25.8,20.0,30.25,North,349,0.0,0.0,77,0.00,,,0.00,weatherlink.com 1.10,2013-02-20 12:08:00,
2013-02-20 07:23:00,25.7,20.0,30.25,North,350,0.0,0.0,78,0.00,,,0.00,weatherlink.com 1.10,2013-02-20 12:23:00,
2013-02-20 07:38:00,25.4,20.0,30.25,North,350,0.0,1.0,79,0.00,,,0.00,weatherlink.com 1.10,2013-02-20 12:38:00,
2013-02-20 07:53:00,25.4,19.0,30.26,North,349,0.0,0.0,78,0.00,,,0.00,weatherlink.com 1.10,2013-02-20 12:53:00,
2013-02-20 08:08:00,26.2,18.0,30.27,NNW,337,0.0,1.0,71,0.00,,,0.00,weatherlink.com 1.10,2013-02-20 13:08:00,
2013-02-20 08:23:00,28.6,17.0,30.27,North,356,1.0,3.0,61,0.00,,,0.00,weatherlink.com 1.10,2013-02-20 13:23:00,
2013-02-20 08:38:00,29.8,16.0,30.28,North,353,4.0,7.0,57,0.00,,,0.00,weatherlink.com 1.10,2013-02-20 13:38:00,
2013-02-20 08:53:00,30.2,15.0,30.28,West,264,1.0,6.0,54,0.00,,,0.00,weatherlink.com 1.10,2013-02-20 13:53:00,
2013-02-20 09:08:00,30.7,14.0,30.28,NW,324,0.0,6.0,51,0.00,,,0.00,weatherlink.com 1.10,2013-02-20 14:08:00,
2013-02-20 09:23:00,31.7,14.0,30.28,NNE,18,0.0,4.0,48,0.00,,,0.00,weatherlink.com 1.10,2013-02-20 14:23:00,
2013-02-20 09:38:00,32.7,14.0,30.30,NNW,345,3.0,6.0,46,0.00,,,0.00,weatherlink.com 1.10,2013-02-20 14:38:00,
2013-02-20 09:54:00,33.6,15.0,30.28,West,259,0.0,6.0,46,0.00,,,0.00,weatherlink.com 1.10,2013-02-20 14:54:00,
2013-02-20 10:09:00,34.6,16.0,30.29,ESE,110,0.0,1.0,46,0.00,,,0.00,weatherlink.com 1.10,2013-02-20 15:09:00,
2013-02-20 10:24:00,35.9,15.0,30.29,North,7,6.0,7.0,42,0.00,,,0.00,weatherlink.com 1.10,2013-02-20 15:24:00,
2013-02-20 10:39:00,36.4,16.0,30.28,ESE,110,0.0,5.0,44,0.00,,,0.00,weatherlink.com 1.10,2013-02-20 15:39:00,
2013-02-20 10:54:00,37.1,15.0,30.27,NW,305,1.0,5.0,40,0.00,,,0.00,weatherlink.com 1.10,2013-02-20 15:54:00,
2013-02-20 11:09:00,37.1,15.0,30.28,East,84,0.0,8.0,40,0.00,,,0.00,weatherlink.com 1.10,2013-02-20 16:09:00,
2013-02-20 11:24:00,38.0,16.0,30.28,West,271,1.0,4.0,40,0.00,,,0.00,weatherlink.com 1.10,2013-02-20 16:24:00,
2013-02-20 11:39:00,38.1,14.0,30.28,ESE,117,2.0,4.0,38,0.00,,,0.00,weatherlink.com 1.10,2013-02-20 16:39:00,
2013-02-20 11:54:00,39.1,13.0,30.28,NNE,29,1.0,3.0,35,0.00,,,0.00,weatherlink.com 1.10,2013-02-20 16:54:00,
2013-02-20 12:09:00,39.5,12.0,30.28,North,8,0.0,3.0,33,0.00,,,0.00,weatherlink.com 1.10,2013-02-20 17:09:00,
2013-02-20 12:24:00,39.5,14.0,30.27,ESE,120,0.0,5.0,36,0.00,,,0.00,weatherlink.com 1.10,2013-02-20 17:24:00,
2013-02-20 12:39:00,39.9,11.0,30.25,NW,325,0.0,4.0,30,0.00,,,0.00,weatherlink.com 1.10,2013-02-20 17:39:00,
2013-02-20 12:54:00,40.5,10.0,30.25,WNW,287,0.0,2.0,29,0.00,,,0.00,weatherlink.com 1.10,2013-02-20 17:54:00,
2013-02-20 13:09:00,40.4,10.0,30.26,NNE,16,1.0,3.0,29,0.00,,,0.00,weatherlink.com 1.10,2013-02-20 18:09:00,
2013-02-20 13:24:00,40.4,10.0,30.26,NW,319,1.0,4.0,28,0.00,,,0.00,weatherlink.com 1.10,2013-02-20 18:24:00,
2013-02-20 13:39:00,40.7,10.0,30.25,WSW,257,0.0,4.0,28,0.00,,,0.00,weatherlink.com 1.10,2013-02-20 18:39:00,
2013-02-20 13:54:00,40.7,10.0,30.24,NE,34,2.0,5.0,28,0.00,,,0.00,weatherlink.com 1.10,2013-02-20 18:54:00,
2013-02-20 14:09:00,41.5,10.0,30.24,NW,322,1.0,3.0,28,0.00,,,0.00,weatherlink.com 1.10,2013-02-20 19:09:00,
2013-02-20 14:24:00,41.3,9.0,30.25,West,277,1.0,3.0,27,0.00,,,0.00,weatherlink.com 1.10,2013-02-20 19:24:00,
2013-02-20 14:39:00,41.3,12.0,30.25,WNW,301,0.0,3.0,30,0.00,,,0.00,weatherlink.com 1.10,2013-02-20 19:39:00,
2013-02-20 14:54:00,41.4,10.0,30.24,NW,323,1.0,3.0,28,0.00,,,0.00,weatherlink.com 1.10,2013-02-20 19:54:00,
2013-02-20 15:09:00,41.2,11.0,30.24,NW,321,2.0,3.0,29,0.00,,,0.00,weatherlink.com 1.10,2013-02-20 20:09:00,
2013-02-20 15:24:00,40.7,8.0,30.23,West,279,1.0,5.0,26,0.00,,,0.00,weatherlink.com 1.10,2013-02-20 20:24:00,
2013-02-20 15:39:00,40.8,11.0,30.24,North,353,0.0,4.0,29,0.00,,,0.00,weatherlink.com 1.10,2013-02-20 20:39:00,
2013-02-20 15:54:00,40.4,10.0,30.24,WNW,291,1.0,3.0,29,0.00,,,0.00,weatherlink.com 1.10,2013-02-20 20:54:00,
2013-02-20 16:09:00,40.5,11.0,30.25,NW,320,3.0,4.0,30,0.00,,,0.00,weatherlink.com 1.10,2013-02-20 21:09:00,
2013-02-20 16:24:00,40.2,10.0,30.25,NW,311,2.0,6.0,29,0.00,,,0.00,weatherlink.com 1.10,2013-02-20 21:24:00,
2013-02-20 16:39:00,39.9,11.0,30.25,West,278,0.0,3.0,30,0.00,,,0.00,weatherlink.com 1.10,2013-02-20 21:39:00,
2013-02-20 16:54:00,39.9,11.0,30.26,NW,306,1.0,5.0,31,0.00,,,0.00,weatherlink.com 1.10,2013-02-20 21:54:00,
2013-02-20 17:09:00,39.6,11.0,30.25,West,271,1.0,2.0,31,0.00,,,0.00,weatherlink.com 1.10,2013-02-20 22:09:00,
2013-02-20 17:24:00,39.6,11.0,30.24,NW,323,0.0,2.0,31,0.00,,,0.00,weatherlink.com 1.10,2013-02-20 22:24:00,
2013-02-20 17:39:00,39.3,12.0,30.23,WNW,295,0.0,2.0,32,0.00,,,0.00,weatherlink.com 1.10,2013-02-20 22:39:00,
2013-02-20 17:54:00,38.9,12.0,30.24,WNW,297,1.0,2.0,33,0.00,,,0.00,weatherlink.com 1.10,2013-02-20 22:54:00,
2013-02-20 18:09:00,38.3,12.0,30.23,NNW,335,0.0,2.0,34,0.00,,,0.00,weatherlink.com 1.10,2013-02-20 23:09:00,
2013-02-20 18:24:00,37.4,14.0,30.23,West,275,0.0,1.0,39,0.00,,,0.00,weatherlink.com 1.10,2013-02-20 23:24:00,
2013-02-20 18:41:00,35.6,16.0,30.22,West,275,0.0,0.0,44,0.00,,,0.00,weatherlink.com 1.10,2013-02-20 23:41:00,
2013-02-20 18:54:00,34.4,16.0,30.23,West,275,0.0,0.0,48,0.00,,,0.00,weatherlink.com 1.10,2013-02-20 23:54:00,
2013-02-20 19:09:00,33.5,17.0,30.23,West,275,0.0,0.0,52,0.00,,,0.00,weatherlink.com 1.10,2013-02-21 00:09:00,
2013-02-20 19:24:00,33.6,15.0,30.22,WNW,283,1.0,2.0,47,0.00,,,0.00,weatherlink.com 1.10,2013-02-21 00:24:00,
2013-02-20 19:39:00,34.9,15.0,30.23,WNW,302,0.0,3.0,44,0.00,,,0.00,weatherlink.com 1.10,2013-02-21 00:39:00,
2013-02-20 19:54:00,35.2,15.0,30.22,North,3,0.0,2.0,44,0.00,,,0.00,weatherlink.com 1.10,2013-02-21 00:54:00,
2013-02-20 20:09:00,35.1,16.0,30.23,NNW,335,0.0,1.0,46,0.00,,,0.00,weatherlink.com 1.10,2013-02-21 01:09:00,
2013-02-20 20:24:00,35.1,16.0,30.22,NNW,338,0.0,2.0,46,0.00,,,0.00,weatherlink.com 1.10,2013-02-21 01:24:00,
2013-02-20 20:39:00,35.0,15.0,30.21,NE,43,1.0,2.0,44,0.00,,,0.00,weatherlink.com 1.10,2013-02-21 01:39:00,
2013-02-20 20:54:00,34.8,16.0,30.22,WNW,294,0.0,1.0,46,0.00,,,0.00,weatherlink.com 1.10,2013-02-21 01:54:00,
2013-02-20 21:09:00,34.4,16.0,30.22,West,266,0.0,2.0,48,0.00,,,0.00,weatherlink.com 1.10,2013-02-21 02:09:00,
2013-02-20 21:24:00,33.6,17.0,30.22,West,281,0.0,1.0,50,0.00,,,0.00,weatherlink.com 1.10,2013-02-21 02:24:00,
2013-02-20 21:39:00,32.4,18.0,30.22,West,281,0.0,0.0,56,0.00,,,0.00,weatherlink.com 1.10,2013-02-21 02:39:00,
2013-02-20 21:54:00,31.5,19.0,30.24,West,281,0.0,0.0,61,0.00,,,0.00,weatherlink.com 1.10,2013-02-21 02:54:00,
2013-02-20 22:09:00,30.4,20.0,30.24,West,281,0.0,0.0,66,0.00,,,0.00,weatherlink.com 1.10,2013-02-21 03:09:00,
2013-02-20 22:25:00,30.2,18.0,30.24,West,281,0.0,0.0,61,0.00,,,0.00,weatherlink.com 1.10,2013-02-21 03:25:00,
2013-02-20 22:39:00,29.8,18.0,30.24,West,281,0.0,0.0,63,0.00,,,0.00,weatherlink.com 1.10,2013-02-21 03:39:00,
2013-02-20 22:54:00,29.4,19.0,30.24,West,281,0.0,0.0,65,0.00,,,0.00,weatherlink.com 1.10,2013-02-21 03:54:00,
2013-02-20 23:09:00,28.9,19.0,30.25,West,281,0.0,0.0,67,0.00,,,0.00,weatherlink.com 1.10,2013-02-21 04:09:00,
2013-02-20 23:24:00,28.5,19.0,30.23,West,281,0.0,0.0,67,0.00,,,0.00,weatherlink.com 1.10,2013-02-21 04:24:00,
2013-02-20 23:39:00,28.3,20.0,30.22,WNW,295,0.0,0.0,70,0.00,,,0.00,weatherlink.com 1.10,2013-02-21 04:39:00,
2013-02-20 23:54:00,28.0,19.0,30.22,WNW,295,0.0,0.0,68,0.00,,,0.00,weatherlink.com 1.10,2013-02-21 04:54:00,